Orbital Elements at Epoch 2459200.5 (2020-Dec-17.0) TDB
Reference: JPL 17 (heliocentric ecliptic J2000)
Element | Value | Uncertainty (1-sigma) | Units |
e | .1441750747813216 | 4.147e-08 | |
a | 2.35442329892704 | 1.3466e-08 | au |
q | 2.014974143737348 | 9.2861e-08 | au |
i | 4.49250492785661 | 4.4579e-06 | deg |
node | 299.6940531899945 | 6.9742e-05 | deg |
peri | 333.7486257273649 | 7.2955e-05 | deg |
M | 99.10003250789246 | 2.3205e-05 | deg |
tp | 2458837.257594314911 (2019-Dec-19.75759431) | 8.4191e-05 | TDB |
period | 1319.548164993967 3.61 | 1.1321e-05 3.1e-08 | d yr |
n | .2728206590334244 | 2.3406e-09 | deg/d |
Q | 2.693872454116732 | 1.5408e-08 | au |
|
| | Orbit Determination Parameters
Additional Information
|